Waarnemingen

Advertentie
Mijn weer
Capel Curig, Groot Brittannië (3305): temperatuur & dauwpunt: 19.05.2020 14:00:00 - 25.05.2020 14:00:00 (BST)Capel Curig, Groot Brittannië (3305): temperatuur -20cm & temperatuur -100cm: 19.05.2020 14:00:00 - 25.05.2020 14:00:00 (BST)Capel Curig, Groot Brittannië (3305): windsnelheid & windstoten: 19.05.2020 14:00:00 - 25.05.2020 14:00:00 (BST)Capel Curig, Groot Brittannië (3305): windrichting: 19.05.2020 14:00:00 - 25.05.2020 14:00:00 (BST)Capel Curig, Groot Brittannië (3305): luchtdruk: 19.05.2020 14:00:00 - 25.05.2020 14:00:00 (BST)Capel Curig, Groot Brittannië (3305): zicht: 19.05.2020 14:00:00 - 25.05.2020 14:00:00 (BST)Capel Curig, Groot Brittannië (3305): neerslag: 19.05.2020 14:00:00 - 25.05.2020 14:00:00 (BST)
Datum & Tijd tt [°C] td [°C] tt -20cm [°C] tt -100cm [°C] ff [km/u] ff [kn] fx [km/u] fx [kn] dd ppp [hPa] vv [km] rr [mm]
25.05.2020 14:00:00 15,3 5,2 - - 39 21 54 29 WZW 1034,2 35 0,0
25.05.2020 13:00:00 14,7 6,5 - - 28 15 - - WZW 1034,4 30 0,0
25.05.2020 12:00:00 14,0 7,1 - - 29 16 - - WZW 1034,6 50 0,0
25.05.2020 11:00:00 12,9 7,6 - - 21 11 - - ZW 1034,8 27 0,0
25.05.2020 10:00:00 11,8 7,7 11,0 10,4 29 16 - - ZW 1034,6 40 0,0
25.05.2020 09:00:00 10,8 7,3 - - 31 17 - - ZW 1034,6 30 0,0
25.05.2020 08:00:00 10,3 7,4 - - 26 14 - - ZW 1034,6 17 0,0
25.05.2020 07:00:00 9,9 8,0 - - 18 10 - - W 1034,7 30 0,0
25.05.2020 06:00:00 8,9 7,6 - - 15 8 - - W 1034,8 25 0,0
25.05.2020 05:00:00 9,3 8,0 - - 31 17 46 25 WZW 1034,1 23 0,0
25.05.2020 04:00:00 9,1 7,6 - - 35 19 - - ZW 1033,9 25 0,0
25.05.2020 03:00:00 7,9 6,7 - - 16 9 - - WZW 1034,6 20 0,0
25.05.2020 02:00:00 8,8 7,7 - - 13 7 - - W 1034,8 18 0,0
25.05.2020 01:00:00 8,3 7,2 - - 18 10 - - WZW 1034,8 19 0,0
25.05.2020 00:00:00 8,7 7,4 - - 22 12 - - WZW 1034,7 15 0,0
24.05.2020 23:00:00 9,1 7,8 - - 21 11 - - WZW 1034,5 17 0,0
24.05.2020 22:00:00 9,4 7,7 - - 28 15 - - WZW 1034,2 16 0,0
24.05.2020 21:00:00 10,3 7,8 - - 29 16 - - ZW 1033,6 17 0,0
24.05.2020 20:00:00 11,4 8,4 - - 26 14 - - WZW 1033,1 18 0,0
24.05.2020 19:00:00 12,9 8,2 - - 26 14 - - ZW 1032,8 30 0,0
24.05.2020 18:00:00 13,5 7,7 - - 29 16 - - ZW 1032,2 23 0,0
24.05.2020 17:00:00 13,8 8,1 - - 35 19 48 26 ZW 1032,1 25 0,0
24.05.2020 16:00:00 14,9 9,3 - - 37 20 48 26 ZW 1031,6 21 0,0
24.05.2020 15:00:00 14,9 9,3 - - 37 20 50 27 ZW 1031,4 14 0,0
24.05.2020 14:00:00 12,4 8,8 - - 41 22 50 27 ZW 1031,7 19 0,0
24.05.2020 13:00:00 11,9 9,3 - - 39 21 54 29 ZW 1031,5 13 0,0
24.05.2020 12:00:00 12,3 9,1 - - 39 21 50 27 ZW 1030,8 19 0,0
24.05.2020 11:00:00 12,4 8,0 - - 35 19 59 32 WZW 1030,1 17 0,0
24.05.2020 10:00:00 11,8 8,4 10,9 10,4 39 21 59 32 WZW 1029,7 21 0,0
24.05.2020 09:00:00 11,6 7,9 - - 31 17 61 33 WZW 1029,2 27 0,0
24.05.2020 08:00:00 11,3 7,9 - - 35 19 57 31 WZW 1028,4 29 0,0
24.05.2020 07:00:00 11,7 8,1 - - 39 21 67 36 WZW 1027,4 35 0,0
24.05.2020 06:00:00 11,5 8,4 - - 44 24 68 37 WZW 1026,5 22 0,0
24.05.2020 05:00:00 11,6 8,7 - - 52 28 68 37 WZW 1025,7 30 0,0
24.05.2020 04:00:00 11,5 8,8 - - 46 25 72 39 WZW 1025,2 25 0,0
24.05.2020 03:00:00 11,8 8,6 - - 55 30 80 43 WZW 1024,4 30 0,0
24.05.2020 02:00:00 11,7 8,5 - - 57 31 74 40 WZW 1024,0 35 0,0
24.05.2020 01:00:00 11,8 8,3 - - 52 28 80 43 WZW 1023,5 28 0,0
24.05.2020 00:00:00 10,9 8,5 - - 46 25 72 39 WZW 1023,7 35 0,2
23.05.2020 23:00:00 9,8 7,4 - - 50 27 72 39 ZW 1023,7 5 0,2
23.05.2020 22:00:00 11,2 5,9 - - 46 25 68 37 WZW 1023,1 40 0,0
23.05.2020 21:00:00 11,6 4,7 - - 44 24 70 38 W 1022,3 35 0,0
23.05.2020 20:00:00 11,7 5,3 - - 44 24 74 40 WZW 1021,8 24 0,0
23.05.2020 19:00:00 12,0 4,4 - - 50 27 81 44 W 1021,2 20 0,0
23.05.2020 18:00:00 12,3 3,7 - - 48 26 80 43 W 1020,7 35 0,0
23.05.2020 17:00:00 12,5 3,6 - - 54 29 81 44 W 1019,7 20 0,0
23.05.2020 16:00:00 12,3 4,7 - - 39 21 91 49 W 1019,4 50 0,0
23.05.2020 15:00:00 11,3 6,3 - - 42 23 81 44 WZW 1018,8 29 0,0
23.05.2020 14:00:00 11,5 5,8 - - 54 29 87 47 WZW 1017,7 30 0,0
23.05.2020 13:00:00 10,9 5,6 - - 52 28 81 44 WZW 1016,9 19 0,0
23.05.2020 12:00:00 11,7 3,9 - - 55 30 94 51 WZW 1016,1 35 0,0
23.05.2020 11:00:00 11,0 4,9 - - 57 31 87 47 WZW 1016,0 35 0,0
23.05.2020 10:00:00 10,7 4,7 11,2 10,4 50 27 81 44 WZW 1015,7 29 0,0
23.05.2020 09:00:00 9,9 5,2 - - 54 29 85 46 WZW 1015,1 23 0,0
23.05.2020 08:00:00 9,8 5,2 - - 54 29 85 46 WZW 1015,0 28 0,0
23.05.2020 07:00:00 9,5 5,7 - - 59 32 81 44 WZW 1013,9 19 0,0
23.05.2020 06:00:00 9,6 5,0 - - 48 26 80 43 WZW 1014,2 23 0,2
23.05.2020 05:00:00 9,2 5,9 - - 54 29 74 40 WZW 1013,7 10 0,0
23.05.2020 04:00:00 9,6 5,7 - - 55 30 80 43 WZW 1013,9 20 0,0
23.05.2020 03:00:00 9,8 6,6 - - 52 28 81 44 ZW 1013,9 19 1,4
23.05.2020 02:00:00 9,6 7,1 - - 46 25 72 39 WZW 1013,7 6 0,4
23.05.2020 01:00:00 10,2 6,5 - - 55 30 81 44 ZW 1013,3 14 0,0
23.05.2020 00:00:00 10,2 6,9 - - 50 27 76 41 ZW 1013,5 12 0,0
22.05.2020 23:00:00 10,4 7,1 - - 55 30 78 42 ZW 1013,2 13 0,0
22.05.2020 22:00:00 10,5 7,7 - - 57 31 85 46 ZW 1013,1 11 0,0
22.05.2020 21:00:00 10,6 7,9 - - 50 27 74 40 ZW 1012,8 12 0,0
22.05.2020 20:00:00 10,7 7,8 - - 50 27 85 46 ZW 1012,5 10 0,0
22.05.2020 19:00:00 10,9 7,6 - - 61 33 96 52 ZW 1011,9 10 0,0
22.05.2020 18:00:00 11,1 7,3 - - 65 35 100 54 ZW 1011,7 12 0,0
22.05.2020 17:00:00 11,2 7,6 - - 65 35 104 56 ZW 1011,1 11 0,0
22.05.2020 16:00:00 11,4 6,7 - - 81 44 107 58 ZW 1010,7 13 0,0
22.05.2020 15:00:00 11,7 7,4 - - 80 43 111 60 ZW 1010,4 11 0,0
22.05.2020 14:00:00 11,6 7,6 - - 74 40 102 55 ZW 1009,9 10 0,0
22.05.2020 13:00:00 11,8 7,3 - - 78 42 113 61 ZW 1008,9 10 0,0
22.05.2020 12:00:00 11,5 7,5 - - 80 43 111 60 ZW 1008,7 11 0,0
22.05.2020 11:00:00 12,0 7,2 - - 74 40 111 60 ZW 1008,3 11 0,0
22.05.2020 10:00:00 11,5 7,5 11,7 10,2 72 39 117 63 ZW 1007,8 9 0,0
22.05.2020 09:00:00 11,4 7,3 - - 68 37 96 52 ZW 1007,3 10 0,0
22.05.2020 08:00:00 11,3 7,2 - - 72 39 94 51 ZW 1006,7 10 0,0
22.05.2020 07:00:00 11,1 8,1 - - 54 29 81 44 ZW 1006,5 10 0,0
22.05.2020 06:00:00 11,0 8,4 - - 61 33 89 48 ZW 1006,3 10 0,0
22.05.2020 05:00:00 11,7 9,9 - - 63 34 106 57 ZW 1005,5 12 2,0
22.05.2020 04:00:00 13,5 11,6 - - 57 31 89 48 ZW 1004,8 2,9 3,2
22.05.2020 03:00:00 11,0 10,3 - - 26 14 52 28 WZW 1007,1 7 5,6
22.05.2020 02:00:00 12,4 9,5 - - 48 26 72 39 ZW 1008,2 5 2,0
22.05.2020 01:00:00 16,6 6,8 - - 16 9 81 44 ZW 1008,1 35 0,0
22.05.2020 00:00:00 17,2 4,3 - - 11 6 - - WZW 1009,5 35 0,0
21.05.2020 23:00:00 18,4 4,4 - - 15 8 59 32 Z 1011,2 45 0,0
21.05.2020 22:00:00 18,4 8,5 - - 24 13 59 32 WZW 1013,0 50 0,0
21.05.2020 21:00:00 16,0 11,1 - - 11 6 - - NNO 1014,3 45 0,0
21.05.2020 20:00:00 15,8 10,7 - - 11 6 - - NO 1015,2 45 0,0
21.05.2020 19:00:00 15,7 10,8 - - 15 8 - - ONO 1016,0 29 0,0
21.05.2020 18:00:00 16,9 10,7 - - 16 9 - - ONO 1016,8 45 0,0
21.05.2020 17:00:00 18,5 9,3 - - 11 6 - - WNW 1017,8 40 0,0
21.05.2020 16:00:00 17,4 9,2 - - 15 8 - - W 1019,3 50 0,0
21.05.2020 15:00:00 16,9 8,7 - - 16 9 - - ZW 1019,8 35 0,0
21.05.2020 14:00:00 15,4 9,6 - - 28 15 - - ZW 1020,7 30 0,0
21.05.2020 13:00:00 16,4 10,5 - - 21 11 - - ZW 1020,8 45 0,0
21.05.2020 12:00:00 16,0 10,5 - - 16 9 - - WZW 1021,0 30 0,0
21.05.2020 11:00:00 14,5 8,7 - - 15 8 - - W 1020,7 40 0,0
21.05.2020 10:00:00 13,9 9,1 11,0 10,0 22 12 - - ZW 1020,4 35 0,0
21.05.2020 09:00:00 13,7 9,9 - - 22 12 - - ZW 1020,0 30 0,0
21.05.2020 08:00:00 12,2 10,6 - - 21 11 48 26 ZW 1019,4 35 0,0
21.05.2020 07:00:00 11,1 10,0 - - 39 21 50 27 ZW 1018,5 14 0,0
21.05.2020 06:00:00 11,7 10,7 - - 28 15 - - ZW 1018,3 18 0,2
21.05.2020 05:00:00 11,4 10,7 - - 21 11 - - WZW 1018,6 8 0,2
21.05.2020 04:00:00 11,8 9,7 - - 26 14 - - ZW 1018,7 35 0,0
21.05.2020 03:00:00 12,7 7,6 - - 26 14 - - ZW 1017,9 45 0,0
21.05.2020 02:00:00 12,9 6,9 - - 22 12 - - ZW 1018,1 29 0,0
21.05.2020 01:00:00 10,9 6,2 - - 8 4 - - W 1018,6 40 0,0
21.05.2020 00:00:00 11,0 5,9 - - 15 8 - - W 1018,9 45 0,0
20.05.2020 23:00:00 11,3 5,6 - - 16 9 - - W 1018,9 35 0,0
20.05.2020 22:00:00 11,6 5,5 - - 13 7 - - ZW 1019,4 50 0,0
20.05.2020 21:00:00 16,4 6,6 - - 22 12 - - ZW 1018,6 35 0,0
20.05.2020 20:00:00 17,2 6,3 - - 24 13 - - W 1018,1 50 0,0
20.05.2020 19:00:00 19,2 5,5 - - 34 18 46 25 W 1017,9 35 0,0
20.05.2020 18:00:00 19,8 4,6 - - 37 20 46 25 WZW 1018,1 35 0,0
20.05.2020 17:00:00 19,9 5,3 - - 35 19 46 25 WZW 1018,6 40 0,0
20.05.2020 16:00:00 19,8 7,8 - - 37 20 46 25 WZW 1018,9 30 0,0
20.05.2020 15:00:00 20,1 7,3 - - 34 18 48 26 WZW 1019,0 45 0,0
20.05.2020 14:00:00 19,6 7,7 - - 35 19 50 27 WZW 1019,4 35 0,0
20.05.2020 13:00:00 18,7 9,9 - - 39 21 48 26 WZW 1019,4 45 0,0
20.05.2020 12:00:00 19,1 9,2 - - 34 18 - - WZW 1019,7 40 0,0
20.05.2020 11:00:00 18,4 10,8 - - 24 13 - - W 1019,9 45 0,0
20.05.2020 10:00:00 17,8 8,2 10,7 10,0 16 9 - - W 1020,4 45 0,0
20.05.2020 09:00:00 14,0 9,6 - - 2 1 - - Z 1021,1 50 0,0
20.05.2020 08:00:00 10,6 9,3 - - 4 2 - - W 1021,8 25 0,0
20.05.2020 07:00:00 9,0 8,5 - - 2 1 - - ZZO 1022,1 13 0,0
20.05.2020 06:00:00 8,6 8,1 - - 5 3 - - ZW 1022,3 13 0,0
20.05.2020 05:00:00 9,0 8,4 - - 9 5 - - ZW 1022,6 18 0,0
20.05.2020 04:00:00 9,1 8,3 - - 16 9 - - WZW 1022,9 18 0,0
20.05.2020 03:00:00 9,4 8,6 - - 26 14 - - W 1023,0 19 0,0
20.05.2020 02:00:00 9,5 8,6 - - 26 14 - - WZW 1023,3 21 0,0
20.05.2020 01:00:00 9,8 8,7 - - 26 14 - - WZW 1023,7 24 0,0
20.05.2020 00:00:00 9,9 9,3 - - 28 15 - - WZW 1023,9 20 0,0
19.05.2020 23:00:00 10,1 9,4 - - 29 16 - - WZW 1024,4 14 0,0
19.05.2020 22:00:00 10,0 9,3 - - 26 14 - - W 1024,1 17 0,0
19.05.2020 21:00:00 10,4 9,5 - - 26 14 48 26 WZW 1023,7 17 0,0
19.05.2020 20:00:00 10,6 9,1 - - 41 22 54 29 ZW 1023,6 24 0,0
19.05.2020 19:00:00 11,4 9,7 - - 34 18 46 25 WZW 1023,8 28 0,0
19.05.2020 18:00:00 11,2 9,4 - - 35 19 - - WZW 1024,4 27 0,0
19.05.2020 17:00:00 11,4 9,6 - - 34 18 - - WZW 1024,5 25 0,0
19.05.2020 16:00:00 11,5 9,7 - - 24 13 - - WZW 1024,9 20 0,0
19.05.2020 15:00:00 11,7 9,8 - - 28 15 - - WZW 1024,6 19 0,0
19.05.2020 14:00:00 11,4 10,0 - - 35 19 48 26 WZW 1024,4 24 0,0

tt = temperatuur
td = dauwpunt
tt -20cm = temperatuur -20cm
tt -100cm = temperatuur -100cm
ff = windsnelheid
fx = windstoten
dd = windrichting
ppp = luchtdruk
vv = zicht
rr = neerslag

Weerstations in de omgeving